Regional Weather Roundup
Issued by NWS Little Rock, AR

Home | Current Version | Previous Version | Text Only | Print | Product List | Glossary Off
Versions: 1 2 3 4 5 6 7 8 9 10 11 12 13 14 15 16 17 18 19 20 21 22 23 24 25 26 27 28 29 30 31 32 33 34 35 36 37 38 39 40 41 42 43 44 45 46 47 48 49 50

992
ASUS44 KLZK 281405
RWRLZK

WEATHER ROUNDUP FOR ARKANSAS
NATIONAL WEATHER SERVICE LITTLE ROCK AR
900 AM CDT THU JUL 28 2016

NOTE: "FAIR" INDICATES FEW OR NO CLOUDS BELOW 12,000 FEET WITH NO
SIGNIFICANT WEATHER AND/OR OBSTRUCTIONS TO VISIBILITY.

ARZ001-003-010-029-281500-
NORTHWEST ARKANSAS

CITY           SKY/WX    TMP DP  RH WIND       PRES   REMARKS
FAYETTEVILLE   MOSUNNY   77  75  93 CALM      30.01S
FORT SMITH     MOSUNNY   81  72  74 W3        29.97S HX  85
HARRISON       SUNNY     79  73  82 NW8       30.01R
BENTONVILLE    CLOUDY    75  72  88 SW3       30.02S
ROGERS         PTSUNNY   76  74  93 W6        30.02S
SILOAM SPGS    SUNNY     79  66  65 W6        30.02S
HIGHFILL       MOSUNNY   77  76  96 W5        30.01S
SPRINGDALE     MOSUNNY   77  75  94 W7        30.03S
$$

ARZ004-005-016-281500-
NORTH CENTRAL ARKANSAS

CITY           SKY/WX    TMP DP  RH WIND       PRES   REMARKS
BATESVILLE     SUNNY     79  75  89 W5        29.95S
FLIPPIN        SUNNY     79  70  73 NW3       29.96R
MTN HOME       SUNNY     77  74  90 CALM      29.97S
$$

ARZ040-041-281500-
WEST CENTRAL ARKANSAS

CITY           SKY/WX    TMP DP  RH WIND       PRES   REMARKS
MENA             N/A    N/A N/A N/A MISG        N/A
MOUNT IDA      PTSUNNY   79  74  84 VRB3      29.97S
$$

ARZ009-017-025-026-028-281500-
NORTHEAST ARKANSAS

CITY           SKY/WX    TMP DP  RH WIND       PRES   REMARKS
JONESBORO      PTSUNNY   79  74  84 SW5       29.94S
NEWPORT        PTSUNNY   81  76  84 W5        29.96R HX  87
WALNUT RIDGE   MOSUNNY   79  73  83 W6        29.94R
BLYTHEVILLE    CLOUDY    78  75  90 VRB5      29.94R
NW BLYTHEVILLE CLOUDY    79  75  89 W7        29.93
$$

ARZ022-023-033-042-044-281500-
CENTRAL ARKANSAS

CITY           SKY/WX    TMP DP  RH WIND       PRES   REMARKS
LITTLE ROCK    CLOUDY    80  74  81 W6        29.97R HX  85
N LITTLE ROCK    N/A     77  74  92 W3        29.94S
JACKSONVILLE   CLOUDY    81  76  83 W7        29.95S HX  88
SEARCY         CLOUDY    78  76  93 VRB3      29.97R
HOT SPRINGS    CLOUDY    78  73  84 SW5       29.99S
RUSSELLVILLE   MOSUNNY   81  76  84 N6        29.96S HX  87
$$

ARZ036-281500-
EAST ARKANSAS

CITY           SKY/WX    TMP DP  RH WIND       PRES   REMARKS
WEST MEMPHIS   CLOUDY    77  75  93 SW5       29.94R
$$

ARZ050-053-066-070-073-281500-
SOUTHWEST ARKANSAS

CITY           SKY/WX    TMP DP  RH WIND       PRES   REMARKS
ARKADELPHIA    PTSUNNY   77  74  90 W7        29.99F
CAMDEN         RAIN      73  68  83 W3        29.99S
TEXARKANA      LGT RAIN  75  72  90 S6        30.00F
EL DORADO      HVY RAIN  74  73  97 W16G24    30.02R FOG
DE QUEEN       CLOUDY    74  74 100 SW6       29.99R THUNDER
$$

ARZ056-057-069-281500-
SOUTHEAST ARKANSAS

CITY           SKY/WX    TMP DP  RH WIND       PRES   REMARKS
PINE BLUFF     CLOUDY    78  74  87 SW9       29.98R
STUTTGART      CLOUDY    77  72  83 SW8       29.97R
MONTICELLO     CLOUDY    78  74  87 W8        29.99R

$$






USA.gov is the U.S. government's official web portal to all federal, state and local government web resources and services.